CZ-6A DEB, 54316

Orbit data source: Space-Track

CZ-6A DEB, 54316 is space debris in SSO originally from a launch on Fri, 11 Nov 2022 UTC launched from the Taiyaun Space Center, China (TSC). Debris objects in space refer to the collection of defunct objects orbiting the Earth. Examples of debris include non-operational satellites, rocket bodies, and fragments generated from explosions, collisions, or faulty payload assembly.

Loading next visibility...
Identifier
54316, 2022-151BK
Orbit
SSO
Country
Flag of CNCN / PRC
Related business
Manufacturer
SAST
Mission
Spacecraft
Bus & Motor
Unknown
Mass
Unknown
Launch date (UTC)
2022-11-11 (4 years ago)
Launch vehicle
Unknown
Launch site
Taiyaun Space Center, China (TSC)
Object type
Payload
Rocket body
Debris
Shape & HBR
Unknown shape, 0.1 m
Radar Cross Section
Medium (>0.1 m² and <1 m²)

Expand to show TLE details & history
Last TLE update: 9 hours ago

TLE from 9 hours ago
0 CZ-6A DEB
1 54316U 22151BK  26249.53128236  .00000318  00000-0  19373-3 0  9991
2 54316  98.8281 249.0385 0041306  89.4164 271.1741 14.12627495196127
Epoch: 2026-09-06T12:45Z
TLE epoch observation values (Epoch: 2026-09-06T12:45:02.795Z)
Latitude
-0.00004°
Longitude
72.1518°
Altitude
852.806 km
Speed
7.426 km/s
True Right ascension
16h 36m 09s
True Declination
0° 00' 00"
Sunlit
Object was in daylight at epoch
Visualization orbit readout
Latitude
Unknown
Longitude
Unknown
Altitude
Unknown
Speed
Unknown
Apparent Right ascension
Unknown
Apparent Declination
Unknown
Sunlit
N/A
Visualization observer readout
Local Sidereal Time
13:37:19
Azimuth
Unknown
Elevation
Unknown
Doppler factor
Unknown
Orbital elements
Apogee altitude
877.415 km
Perigee altitude
817.722 km
Semi-major axis
7,225.705 km
Eccentricity
0.00413
Inclination
98.8281°
RAAN
249.0385°
Arg. of periapsis
89.4164°
True anomaly
270.70082°
Mean anomaly
271.1741°
Eccentric anomaly
270.93747°
Mean motion
3.53364 °/min
Orbital period
101.88 mins
BSTAR
0.00019373
Loading maneuver chart data...
Computing Atmospheric mass density...
Loading historical data...
Loading historical data...
Loading historical data...
Loading historical data...
Loading historical data...
Loading historical data...
Loading historical data...

Documentation

Showing up to 5 results
|